Wattisham, United Kingdom

12:33 AM GMT on December 18, 2017 (GMT +0000)
Wattisham Army

Weather History for EGUW - October, 2013

Change the Weather History Date:

Friday, October 25, 2013

  Actual Average Record
Temperature  
Mean Temperature 59 °F -  
Max Temperature 65 °F - - ()
Min Temperature 53 °F - - ()
Degree Days  
Heating Degree Days 6    
Growing Degree Days 9 (Base 50)    
Moisture  
Dew Point 55 °F    
Average Humidity 89    
Maximum Humidity 100    
Minimum Humidity 69    
Precipitation  
Precipitation 0.04 in - - ()
Sea Level Pressure  
Sea Level Pressure 29.68 in    
Wind  
Wind Speed 12 mph ()    
Max Wind Speed 17 mph    
Max Gust Speed -    
Visibility 6.7 miles    
Events Rain    
T = Trace of Precipitation, MM = Missing Value Source: Averaged Metar Reports

Daily Weather History Graph

Daily Weather History Graph

Search for Another Location

Airport or City:

Trip Planner

Search our weather history database for the weather conditions in past years. The results will help you decide how hot, cold, wet, or windy it might be!

Date:

Astronomy

Oct. 25, 2013 Rise Set
Actual Time 7:38 AM BST 5:40 PM BST
Civil Twilight 7:03 AM BST 6:15 PM BST
Nautical Twilight 6:24 AM BST 6:55 PM BST
Astronomical Twilight 5:45 AM BST 7:34 PM BST
Moon 10:34 PM BST (10/25) 1:23 PM BST (10/25)
Length of Visible Light 11h 11m
Length of Day
10h 01m
Waning Gibbous, 64% of the Moon is Illuminated
Oct 25
Waning Gibbous
Oct 27
Last Quarter
Nov 3
New
Nov 10
First Quarter
Nov 17
Full

Hourly Weather History & Observations

Time (BST) Temp. Dew Point Humidity Pressure Visibility Wind Dir Wind Speed Gust Speed Precip Events Conditions
12:50 AM 55.4 °F 53.6 °F 94% 29.86 in 4.3 mi ESE 12.7 mph - N/A   Mostly Cloudy
1:00 AM 55 °F 54 °F 93% 29.88 in 4 mi ESE 12.7 mph - -   Mist
1:50 AM 55.4 °F 53.6 °F 94% 29.83 in 6.2 mi ESE 12.7 mph - N/A   Overcast
2:50 AM 55.4 °F 53.6 °F 94% 29.77 in 6.2 mi ESE 12.7 mph - N/A   Overcast
3:50 AM 55.4 °F 53.6 °F 94% 29.74 in 6.2 mi SE 13.8 mph - N/A   Overcast
4:00 AM 56 °F 53 °F 88% 29.75 in 12 mi SE 13.8 mph - -   Overcast
4:50 AM 57.2 °F 53.6 °F 88% 29.68 in 6.2 mi SE 12.7 mph - N/A Rain Light Rain
5:50 AM 57.2 °F 53.6 °F 88% 29.68 in 6.2 mi SE 17.3 mph - N/A Rain Light Rain
6:50 AM 55.4 °F 53.6 °F 94% 29.65 in 5.0 mi SE 15.0 mph - N/A Rain Light Rain
7:00 AM 55 °F 54 °F 95% 29.66 in 5 mi SE 15.0 mph - - Rain Light Rain
7:50 AM 55.4 °F 55.4 °F 100% 29.65 in 2.8 mi SSE 13.8 mph - N/A   Light Drizzle
8:03 AM 55.4 °F 55.4 °F 100% 29.65 in 2.2 mi SSE 13.8 mph - N/A   Light Drizzle
8:20 AM 55.4 °F 55.4 °F 100% 29.65 in 5.0 mi SSE 12.7 mph - N/A   Light Drizzle
8:50 AM 57.2 °F 55.4 °F 94% 29.65 in 3.1 mi South 12.7 mph - N/A   Light Drizzle
9:50 AM 57.2 °F 57.2 °F 100% 29.65 in 3.1 mi South 12.7 mph - N/A   Light Drizzle
10:00 AM 57 °F 56 °F 97% 29.65 in 3 mi South 12.7 mph - - Rain Light Drizzle
10:00 AM 57.2 °F 57.2 °F 100% 29.65 in 6.2 mi South 13.8 mph - N/A   Light Drizzle
10:29 AM 59.0 °F 57.2 °F 94% 29.65 in 6.2 mi South 12.7 mph - N/A   Mostly Cloudy
10:50 AM 59.0 °F 57.2 °F 94% 29.65 in 6.2 mi South 11.5 mph - N/A   Overcast
11:15 AM 60.8 °F 59.0 °F 94% 29.65 in 6.2 mi South 11.5 mph - N/A   Mostly Cloudy
11:50 AM 60.8 °F 59.0 °F 94% 29.65 in 6.2 mi SSW 12.7 mph - N/A   Mostly Cloudy
12:23 PM 62.6 °F 59.0 °F 88% 29.65 in 6.2 mi SSW 11.5 mph - N/A   Mostly Cloudy
12:50 PM 62.6 °F 59.0 °F 88% 29.65 in 6.2 mi SSW 11.5 mph - N/A   Mostly Cloudy
1:00 PM 62 °F 58 °F 84% 29.67 in 19 mi SSW 11.5 mph - -   Partly Cloudy
1:12 PM 64.4 °F 59.0 °F 83% 29.65 in 6.2 mi SW 13.8 mph - N/A   Scattered Clouds
1:50 PM 64.4 °F 57.2 °F 77% 29.65 in 6.2 mi SW 13.8 mph - N/A   Mostly Cloudy
2:50 PM 62.6 °F 53.6 °F 72% 29.65 in 6.2 mi SSW 15.0 mph - N/A   Mostly Cloudy
3:50 PM 62.6 °F 53.6 °F 72% 29.65 in 6.2 mi SSW 11.5 mph - N/A   Mostly Cloudy
4:00 PM 62 °F 54 °F 69% 29.67 in 22 mi SSW 11.5 mph - -   Scattered Clouds
4:50 PM 62.6 °F 53.6 °F 72% 29.65 in 6.2 mi SSW 16.1 mph - N/A   Mostly Cloudy
5:50 PM 60.8 °F 53.6 °F 77% 29.68 in 6.2 mi SSW 13.8 mph - N/A   Scattered Clouds
6:50 PM 59.0 °F 55.4 °F 88% 29.68 in 6.2 mi South 12.7 mph - N/A   Partly Cloudy
7:00 PM 59 °F 55 °F 81% 29.68 in 19 mi South 12.7 mph - -   Scattered Clouds
7:50 PM 59.0 °F 55.4 °F 88% 29.65 in 6.2 mi SSW 13.8 mph - N/A   Unknown
8:50 PM 59.0 °F 53.6 °F 82% 29.68 in 6.2 mi SSW 13.8 mph - N/A   Unknown
9:50 PM 57.2 °F 53.6 °F 88% 29.68 in 6.2 mi SSW 12.7 mph - N/A   Unknown
10:00 PM 58 °F 54 °F 82% 29.69 in 19 mi SSW 12.7 mph - -  
10:50 PM 57.2 °F 53.6 °F 88% 29.68 in 6.2 mi SSW 12.7 mph - N/A   Unknown
11:50 PM 57.2 °F 53.6 °F 88% 29.68 in 6.2 mi SSW 15.0 mph - N/A   Unknown